"Time","Temp","Dewpoint","Humidity","Pressure","Direction","Speed","Gust","Precip","PrecipRate"
"00:04:59","75.5","70.3","84","29.75","180","0.8","2.4","0.00","0.00"
"00:09:56","75.7","70.5","84","29.75","180","0.7","3.6","0.00","0.00"
"00:14:58","75.7","70.5","84","29.75","180","1","3.5","0.00","0.00"
"00:19:59","75.7","70.5","84","29.75","180","0.5","2.4","0.00","0.00"
"00:24:56","75.7","70.5","84.1","29.75","180","1","3.6","0.00","0.00"
"00:29:57","75.6","70.8","85","29.75","180","1.1","3.6","0.00","0.00"
"00:34:58","75.5","70.7","85","29.75","180","0.2","2.3","0.00","0.00"
"00:39:57","75.4","70.6","85","29.75","180","0.3","2.4","0.00","0.00"
"00:44:58","75.3","70.7","85.8","29.75","180","1","2.4","0.00","0.00"
"00:49:59","75.2","70.7","86","29.74","180","0.2","2.3","0.00","0.00"
"00:54:56","75.1","70.9","86.8","29.74","180","0.1","1.2","0.00","0.00"
"00:59:58","75","70.9","87","29.74","180","0.3","2.4","0.00","0.00"
"01:04:58","75","70.9","87","29.74","180","0.1","1.2","0.00","0.00"
"01:09:57","75","70.9","87","29.74","180","0.1","1.2","0.00","0.00"
"01:14:59","74.9","70.8","87.2","29.74","180","0.3","1.2","0.00","0.00"
"01:19:56","74.8","71","88","29.73","180","0.2","2.4","0.00","0.00"
"01:24:58","74.7","70.9","88","29.73","180","0.9","2.4","0.00","0.00"
"01:29:56","74.6","70.8","88","29.73","180","0.8","2.4","0.00","0.00"
"01:34:59","74.5","70.7","88","29.72","180","0.5","2.4","0.00","0.00"
"01:39:57","74.4","70.9","88.9","29.72","180","0.6","2.4","0.00","0.00"
"01:44:58","74.3","70.8","89","29.72","180","0.6","2.3","0.00","0.00"
"01:49:59","74.1","70.6","89","29.72","180","0","1.2","0.00","0.00"
"01:54:56","74","70.8","89.7","29.72","180","0.5","3.6","0.00","0.00"
"01:59:57","73.9","70.8","90","29.72","180","0.2","2.4","0.00","0.00"
"02:04:58","73.7","70.6","90","29.72","180","0.9","2.4","0.00","0.00"
"02:09:56","73.5","70.5","90.1","29.72","180","1.2","3.6","0.00","0.00"
"02:14:58","73.4","70.6","91","29.72","180","0.9","3.5","0.00","0.00"
"02:19:59","73.3","70.5","91","29.71","180","1.3","3.6","0.00","0.00"
"02:24:56","73.2","70.4","91","29.71","180","0.2","2.3","0.00","0.00"
"02:29:57","73","70.2","91","29.71","180","0","1.2","0.00","0.00"
"02:34:58","72.9","70.1","91","29.71","180","0.4","2.4","0.00","0.00"
"02:39:57","72.8","70.2","91.6","29.71","180","0.4","2.4","0.00","0.00"
"02:44:58","72.8","70.3","92","29.71","179","1.5","4.8","0.00","0.00"
"02:49:59","72.8","70.3","92","29.70","179","0.9","3.6","0.00","0.00"
"02:54:56","72.9","70.4","92","29.70","177","1.3","6","0.00","0.00"
"02:59:57","72.8","70.4","92.2","29.70","178","1.1","3.6","0.00","0.00"
"03:04:59","72.8","70.6","92.8","29.70","178","0.9","3.6","0.00","0.00"
"03:09:58","72.8","70.7","93","29.70","178","0.7","3.6","0.00","0.00"
"03:14:56","72.8","70.7","93","29.70","178","0","0","0.00","0.00"
"03:19:57","72.8","70.7","93","29.70","178","0","0","0.00","0.00"
"03:24:58","72.8","70.7","93","29.70","178","0","0","0.00","0.00"
"03:29:59","72.9","70.8","93","29.70","178","0","0","0.00","0.00"
"03:34:57","72.8","70.7","93","29.70","178","0","0","0.00","0.00"
"03:39:59","72.7","70.4","92.3","29.70","178","0","0","0.00","0.00"
"03:44:56","72.5","70.2","92.5","29.71","178","0","0","0.00","0.00"
"03:49:58","72.4","70.3","93","29.71","178","0","0","0.00","0.00"
"03:54:57","72.3","70.2","93","29.71","178","0","0","0.00","0.00"
"03:59:56","72.2","70.1","93","29.71","178","0","0","0.00","0.00"
"04:04:58","72","70","93.3","29.71","178","0","0","0.00","0.00"
"04:09:56","71.9","69.9","93.3","29.71","178","0","0","0.00","0.00"
"04:14:58","71.8","70","94","29.71","178","0","0","0.00","0.00"
"04:19:59","71.9","70.1","94","29.71","178","0","0","0.00","0.00"
"04:24:59","71.9","70.1","94","29.71","178","0","0","0.00","0.00"
"04:29:57","71.9","70.3","94.6","29.71","178","0","0","0.00","0.00"
"04:34:59","72","70.5","94.9","29.69","178","0","0","0.00","0.00"
"04:39:57","72.1","70.3","94","29.69","178","0","0","0.00","0.00"
"04:44:58","72.1","70.3","94","29.69","178","0","0","0.00","0.00"
"04:49:56","72.1","70.3","94","29.69","178","0.3","2.4","0.00","0.00"
"04:54:57","72.2","70.4","94","29.69","178","1.1","2.4","0.00","0.00"
"04:59:59","72.3","70.3","93.4","29.69","173","0.3","3.6","0.00","0.00"
"05:04:59","72.3","70.2","93","29.68","173","0.7","2.4","0.00","0.00"
"05:09:58","72.3","70.2","93","29.68","173","0.5","2.4","0.00","0.00"
"05:14:56","72.3","70.2","93","29.68","173","0","1.2","0.00","0.00"
"05:19:58","72.3","70.2","93","29.68","173","0.4","2.4","0.00","0.00"
"05:24:58","72.3","70.2","93","29.68","173","0.4","2.4","0.00","0.00"
"05:29:59","72.3","69.9","92.2","29.69","173","0","0","0.00","0.00"
"05:34:57","72.2","69.9","92.4","29.69","173","0.3","2.4","0.00","0.00"
"05:39:59","72.2","70","92.8","29.69","173","0.1","1.2","0.00","0.00"
"05:44:59","72","69.6","92.3","29.70","173","0","1.2","0.00","0.00"
"05:49:57","71.9","69.6","92.7","29.70","173","0.2","3.6","0.00","0.00"
"05:54:58","71.8","69.7","93","29.70","169","1.3","4.8","0.00","0.00"
"05:59:59","71.8","69.7","93","29.70","165","0.6","4.6","0.00","0.00"
"06:04:59","71.9","69.8","93","29.69","164","1.4","3.6","0.00","0.00"
"06:09:59","71.9","69.8","93","29.69","163","1.3","3.6","0.00","0.00"
"06:14:56","71.9","69.8","93","29.69","162","1.5","3.6","0.00","0.00"
"06:19:57","71.9","69.8","93","29.69","161","1.7","3.6","0.00","0.00"
"06:24:57","71.9","69.8","93","29.69","161","0.5","2.4","0.00","0.00"
"06:29:57","71.9","69.8","93","29.69","163","0","1.2","0.00","0.00"
"06:34:57","71.7","69.6","93","29.69","165","0","0","0.00","0.00"
"06:39:59","71.7","69.6","93","29.69","165","0","0","0.00","0.00"
"06:44:56","71.7","69.6","93","29.70","165","0","0","0.00","0.00"
"06:49:56","71.7","69.9","93.9","29.70","165","0","0","0.00","0.00"
"06:54:56","71.7","69.9","94","29.70","283","0","0","0.00","0.00"
"06:59:57","71.7","69.9","94","29.70","283","0","1.2","0.00","0.00"
"07:04:57","71.7","69.9","94","29.70","283","0","0","0.00","0.00"
"07:09:56","71.8","70","94","29.70","283","0","0","0.00","0.00"
"07:14:57","71.9","70.1","94","29.70","248","0","1.2","0.00","0.00"
"07:19:58","72","70.2","94","29.70","248","0.8","2.4","0.00","0.00"
"07:24:58","72.2","70.4","94","29.70","196","0","0","0.00","0.00"
"07:29:59","72.4","70.4","93.3","29.71","204","0","1.2","0.00","0.00"
"07:34:59","72.7","70.6","93","29.71","206","0.3","2.4","0.00","0.00"
"07:39:57","73.1","70.7","92.3","29.71","214","0.5","2.4","0.00","0.00"
"07:44:57","73.3","70.7","91.5","29.71","214","0.1","1.2","0.00","0.00"
"07:49:58","73.5","70.7","91","29.71","214","0","0","0.00","0.00"
"07:54:58","73.6","70.8","91","29.71","214","0","0","0.00","0.00"
"07:59:56","73.7","70.8","90.8","29.71","216","0","0","0.00","0.00"
"08:04:56","73.9","71","90.7","29.71","216","0","0","0.00","0.00"
"08:09:59","74","71","90","29.71","216","1.5","4.8","0.00","0.00"
"08:14:56","74.3","71.3","90.3","29.72","215","1.1","3.6","0.00","0.00"
"08:19:57","74.8","71.5","89.6","29.72","215","2","4.8","0.00","0.00"
"08:24:58","75.2","71.5","88.3","29.72","186","1.7","4.6","0.00","0.00"
"08:29:59","75.5","71.7","88.2","29.72","138","0.9","4.8","0.00","0.00"
"08:34:59","75.9","71.9","87.6","29.71","148","0.6","4.6","0.00","0.00"
"08:39:57","76.2","72","87","29.71","135","1.4","3.6","0.00","0.00"
"08:44:58","76.4","72","86.3","29.71","134","1.8","4.8","0.00","0.00"
"08:49:59","76.5","72","86","29.71","154","1.7","6","0.00","0.00"
"08:54:56","76.5","72","85.8","29.71","181","1.4","5.8","0.00","0.00"
"08:59:57","76.7","72.2","85.9","29.71","181","0.5","3.6","0.00","0.00"
"09:04:57","77.2","72.6","86","29.71","181","0.8","2.4","0.00","0.00"
"09:09:56","77.7","72.8","84.9","29.71","181","1.4","3.6","0.00","0.00"
"09:14:58","78","72.8","84","29.72","207","2","6","0.00","0.00"
"09:19:59","78.3","72.8","83.3","29.72","202","2.5","4.8","0.00","0.00"
"09:24:56","78.5","72.9","82.9","29.72","186","3.1","7.2","0.00","0.00"
"09:29:57","78.7","72.6","81.7","29.72","171","3.8","7.2","0.00","0.00"
"09:34:59","78.9","72.9","81.9","29.72","191","3.5","7.2","0.00","0.00"
"09:39:59","79","72.6","80.7","29.72","210","3","6","0.00","0.00"
"09:44:55","79.2","72.8","80.8","29.72","221","2.8","7.2","0.00","0.00"
"09:49:58","79.4","73","80.7","29.71","252","2.7","7.2","0.00","0.00"
"09:54:56","79.7","73.4","81","29.71","171","3.1","6","0.00","0.00"
"09:59:59","80.1","73.8","81.1","29.71","152","0.7","3.6","0.00","0.00"
"10:04:57","80.7","73.9","80","29.71","218","1.7","4.8","0.00","0.00"
"10:09:57","81.2","73.8","78.3","29.71","218","1","4.8","0.00","0.00"
"10:14:56","81.6","73.7","77","29.71","162","1.6","4.8","0.00","0.00"
"10:19:58","81.9","73.8","76.4","29.70","187","1.6","4.8","0.00","0.00"
"10:24:56","82.1","73.8","76","29.70","202","1.3","3.6","0.00","0.00"
"10:29:59","82.4","73.7","75","29.70","200","1.2","7.2","0.00","0.00"
"10:34:57","82.8","73.7","74","29.70","213","2.8","6.9","0.00","0.00"
"10:39:56","83.3","73.9","73.6","29.70","148","1.9","4.8","0.00","0.00"
"10:44:59","83.6","73.5","71.9","29.70","157","2.1","7.2","0.00","0.00"
"10:49:57","83.6","73.4","71.4","29.69","175","2.2","6","0.00","0.00"
"10:54:56","83.6","72.6","69.7","29.69","143","0.7","3.5","0.00","0.00"
"10:59:58","83.9","73.6","71.2","29.69","139","0.7","4.8","0.00","0.00"
"11:04:56","84.1","73.8","71.2","29.69","136","1.2","4.6","0.00","0.00"
"11:09:57","84.4","73.4","69.6","29.69","153","2.4","4.8","0.00","0.00"
"11:14:56","84.8","73.7","69.4","29.69","180","2.5","4.8","0.00","0.00"
"11:19:58","85.1","73.4","68","29.69","190","2.4","4.8","0.00","0.00"
"11:24:57","84.7","73.1","68.2","29.69","170","1.2","3.6","0.00","0.00"
"11:29:59","85.1","73.8","69.1","29.69","146","0.7","3.5","0.00","0.00"
"11:34:57","85.5","72.9","66.1","29.69","148","1.6","4.8","0.00","0.00"
"11:39:56","85.1","71.7","64.3","29.69","153","1.9","4.8","0.00","0.00"
"11:44:58","85","71.5","64.1","29.69","152","1.6","4.8","0.00","0.00"
"11:49:57","85.1","71.8","64.7","29.69","126","2.2","4.8","0.00","0.00"
"11:54:59","85.1","71.8","64.6","29.69","126","0.6","2.4","0.00","0.00"
"11:59:58","85.1","71.4","63.8","29.69","126","0.5","2.4","0.00","0.00"
"12:04:56","85","71.2","63.3","29.68","126","0","0","0.00","0.00"
"12:09:56","85","71.3","63.7","29.68","125","0","0","0.00","0.00"
"12:14:55","85","71","63","29.68","125","0","0","0.00","0.00"
"12:19:58","85.1","71","63","29.68","125","0","0","0.00","0.00"
"12:24:57","85.1","71.2","63.3","29.68","126","0","0","0.00","0.00"
"12:29:59","85","70.9","62.8","29.68","126","0","1.2","0.00","0.00"
"12:34:58","84.9","71.4","64.1","29.68","126","0.6","2.4","0.00","0.00"
"12:39:57","84.9","72.1","65.5","29.68","126","1.2","2.4","0.00","0.00"
"12:44:59","84.9","72.4","66.2","29.68","126","1.6","4.8","0.00","0.00"
"12:49:58","84.9","72.4","66.2","29.68","126","0.4","2.4","0.00","0.00"
"12:54:56","84.9","72.3","66.1","29.68","126","2","4.8","0.00","0.00"
"12:59:59","84.7","71.8","65.3","29.68","128","2.3","4.8","0.00","0.00"
"13:04:57","84.6","71.7","65.5","29.68","134","1.8","4.8","0.00","0.00"
"13:09:57","84.4","71.1","64.4","29.68","149","2.2","4.8","0.00","0.00"
"13:14:56","84.3","71.6","65.7","29.68","145","1.7","3.6","0.00","0.00"
"13:19:59","84.3","71.9","66.7","29.68","154","2.3","4.8","0.00","0.00"
"13:24:57","84.1","71.7","66.6","29.68","166","2.1","4.6","0.00","0.00"
"13:29:59","84","71.6","66.5","29.68","167","2.5","4.8","0.00","0.00"
"13:34:59","84.1","71.9","66.9","29.67","167","2.2","4.8","0.00","0.00"
"13:39:58","84.3","72.3","67.3","29.67","161","3.2","12","0.00","0.00"
"13:44:57","84.1","72.2","67.5","29.67","168","4.5","8.4","0.00","0.00"
"13:49:56","83.9","72.9","69.7","29.67","155","3","8.4","0.00","0.00"
"13:54:58","83.7","72.9","70.2","29.67","190","4.2","10.8","0.00","0.00"
"13:59:57","83.6","72.5","69.5","29.67","192","4.8","9.6","0.00","0.00"
"14:04:59","83.5","72.3","69.1","29.67","186","3.6","7.2","0.00","0.00"
"14:09:59","83.5","72.6","69.7","29.67","174","2.6","6","0.00","0.00"
"14:14:58","83.8","72.9","69.9","29.67","169","2.4","5.8","0.00","0.00"
"14:19:57","84.1","72.7","68.6","29.67","174","3.1","6","0.00","0.00"
"14:24:59","84.2","72.4","67.8","29.67","195","4","9.6","0.00","0.00"
"14:29:57","84.3","72.7","68.4","29.67","186","2.8","6","0.00","0.00"
"14:34:59","84.6","73.1","68.7","29.66","182","2.4","7.2","0.00","0.00"
"14:39:59","84.7","72.9","67.9","29.66","193","3.2","7.2","0.00","0.00"
"14:44:57","84.8","73.4","68.7","29.66","187","2.6","8.4","0.00","0.00"
"14:49:59","84.8","73.4","68.8","29.65","187","4","8.1","0.00","0.00"
"14:54:58","84.8","73.8","69.6","29.65","197","3.7","7.2","0.00","0.00"
"14:59:56","85.5","74.2","69.2","29.65","145","2.5","6","0.00","0.00"
"15:04:57","86.2","75.1","69.5","29.64","204","3.5","7.2","0.00","0.00"
"15:09:58","86.8","74.4","66.8","29.64","206","4.5","8.4","0.00","0.00"
"15:14:56","87","74.2","65.9","29.64","186","4.5","10.8","0.00","0.00"
"15:19:59","87.2","74.5","66.2","29.63","162","2.5","6","0.00","0.00"
"15:24:57","87.4","74.3","65.3","29.63","186","3.9","8.4","0.00","0.00"
"15:29:59","87.5","74.7","65.9","29.63","166","2.5","4.8","0.00","0.00"
"15:34:57","87.7","72.8","61.4","29.62","139","3.1","12","0.00","0.00"
"15:39:56","87.7","72.4","60.5","29.62","154","2.9","7.2","0.00","0.00"
"15:44:59","87.9","72.9","61.2","29.62","158","2.1","6","0.00","0.00"
"15:49:57","88.3","72.8","60.3","29.62","160","3","7.2","0.00","0.00"
"15:54:59","88.4","72.1","58.9","29.62","155","2.9","8.4","0.00","0.00"
"15:59:58","88.3","70.2","55.4","29.62","131","4.3","8.4","0.00","0.00"
"16:04:59","87.9","70.4","56.2","29.62","146","3.8","12","0.00","0.00"
"16:09:59","88.2","71.6","58.1","29.62","171","3.5","7.2","0.00","0.00"
"16:14:58","88.6","71.5","57.2","29.62","189","5.9","12","0.00","0.00"
"16:19:56","88.3","71.3","57.4","29.62","177","4.2","8.1","0.00","0.00"
"16:24:58","88","71.4","58","29.62","170","4.1","14.4","0.00","0.00"
"16:29:56","88.1","70.8","56.7","29.62","193","5.3","15","0.00","0.00"
"16:34:58","88","71.1","57.4","29.62","202","5.8","13.2","0.00","0.00"
"16:39:57","87.4","69.5","55.5","29.62","193","5.3","12.7","0.00","0.00"
"16:44:59","86.5","69.7","57.5","29.62","168","4.1","10.8","0.00","0.00"
"16:49:58","85.8","69.5","58.5","29.61","189","4.9","12","0.00","0.00"
"16:54:59","85.4","69.4","59.1","29.61","197","5.5","15.6","0.00","0.00"
"16:59:57","85.8","69.8","59","29.61","202","6.8","16.1","0.00","0.00"
"17:04:59","86.2","69.7","58","29.61","198","5.3","12","0.00","0.00"
"17:09:59","86","69.8","58.5","29.61","184","4.1","8.4","0.00","0.00"
"17:14:58","86.3","70.1","58.5","29.61","189","5","13.2","0.00","0.00"
"17:19:56","86.1","69.4","57.7","29.61","181","4","10.4","0.00","0.00"
"17:24:59","85.8","69.2","57.8","29.61","195","6.4","15","0.00","0.00"
"17:29:57","85.3","69.2","58.7","29.61","190","5.9","14.4","0.00","0.00"
"17:34:59","85.1","69.3","59.3","29.60","209","5.1","10.8","0.00","0.00"
"17:39:58","84.9","69.9","60.9","29.60","219","3.5","7.2","0.00","0.00"
"17:44:56","84.8","70.1","61.6","29.61","209","3.2","6","0.00","0.00"
"17:49:59","84.6","69.9","61.7","29.61","233","2.7","6","0.00","0.00"
"17:54:57","84.4","69.6","61.3","29.61","200","4.2","6","0.00","0.00"
"17:59:59","84.2","69.8","61.9","29.61","203","3.2","7.2","0.00","0.00"
"18:04:57","84.1","69.6","61.9","29.60","175","3.1","7.2","0.00","0.00"
"18:09:57","83.9","69.6","62.1","29.60","183","2.4","6","0.00","0.00"
"18:14:56","83.8","69.7","62.6","29.60","187","2.5","4.8","0.00","0.00"
"18:19:59","83.7","70.1","63.7","29.60","204","2.2","6","0.00","0.00"
"18:24:57","83.5","69.8","63.6","29.60","181","2.7","6","0.00","0.00"
"18:29:59","83.4","70.1","64.5","29.60","187","1.7","3.6","0.00","0.00"
"18:34:57","83.2","70.3","65.1","29.60","188","1.7","3.6","0.00","0.00"
"18:39:56","83.1","70.1","64.9","29.60","189","2.2","3.6","0.00","0.00"
"18:44:59","83","70.3","65.5","29.60","191","3.1","8.4","0.00","0.00"
"18:49:57","82.9","70.5","66.2","29.60","213","1.5","4.8","0.00","0.00"
"18:54:59","82.8","70.3","66","29.60","236","1.3","4.8","0.00","0.00"
"18:59:57","82.7","70.7","67","29.60","213","1.4","4.6","0.00","0.00"
"19:04:59","82.7","70.5","66.8","29.60","213","1","2.4","0.00","0.00"
"19:09:59","82.6","70.6","67.3","29.60","213","1.2","3.6","0.00","0.00"
"19:14:58","82.4","70.3","67.1","29.60","203","1.6","7.2","0.00","0.00"
"19:19:57","82.2","70.1","66.8","29.60","203","2.9","6","0.00","0.00"
"19:24:58","82.1","70.3","67.5","29.60","196","2","5.8","0.00","0.00"
"19:29:57","81.9","70.1","67.5","29.60","196","1.6","3.6","0.00","0.00"
"19:34:59","81.7","70.1","68","29.60","198","1.3","3.6","0.00","0.00"
"19:39:58","81.5","70.1","68.5","29.60","201","1.2","3.6","0.00","0.00"
"19:44:57","81.2","69.8","68.3","29.60","261","2.4","4.8","0.00","0.00"
"19:49:59","81.1","69.8","68.7","29.60","224","1.4","3.6","0.00","0.00"
"19:54:57","81","69.8","68.8","29.60","207","1.4","4.8","0.00","0.00"
"19:59:59","80.9","69.8","69.1","29.60","197","1.8","7.2","0.00","0.00"
"20:04:57","80.7","69.6","69","29.60","201","2.5","6.9","0.00","0.00"
"20:09:58","80.6","69.7","69.4","29.60","201","1.5","3.6","0.00","0.00"
"20:14:57","80.5","69.4","69","29.61","201","1.9","4.8","0.00","0.00"
"20:19:56","80.5","69.4","68.9","29.61","201","1.6","4.8","0.00","0.00"
"20:24:58","80.5","69.3","68.8","29.61","202","1.8","4.8","0.00","0.00"
"20:29:57","80.3","69.3","69.2","29.61","202","1.3","3.6","0.00","0.00"
"20:34:56","80.3","69.4","69.5","29.61","202","0.5","3.6","0.00","0.00"
"20:39:56","80.1","69.1","69.2","29.61","202","0.6","3.6","0.00","0.00"
"20:44:58","80","69.1","69.7","29.62","195","2.5","10.8","0.00","0.00"
"20:49:57","79.9","68.5","68.4","29.62","197","3.5","7.2","0.00","0.00"
"20:54:55","79.8","68.2","67.7","29.62","217","3.2","7.2","0.00","0.00"
"20:59:59","79.6","67","65.4","29.63","210","3.3","7.2","0.00","0.00"
"21:04:56","79.6","66.3","64.1","29.63","208","3.9","8.4","0.00","0.00"
"21:09:57","79.5","65.8","63","29.63","219","5.3","13.2","0.00","0.00"
"21:14:56","79.3","65.5","62.7","29.63","212","4.4","12.7","0.00","0.00"
"21:19:59","79.2","65.3","62.5","29.63","224","4.6","13.2","0.00","0.00"
"21:24:57","79","65.2","62.8","29.63","236","4.2","12","0.00","0.00"
"21:29:56","78.8","65.1","63","29.64","199","5.2","12","0.00","0.00"
"21:34:57","78.7","65.1","63.2","29.64","196","6.1","15","0.00","0.00"
"21:39:55","78.5","65.3","63.9","29.64","210","3.8","14.4","0.00","0.00"
"21:44:57","78.3","65.5","64.9","29.64","199","5","12.7","0.00","0.00"
"21:49:58","78.1","65.6","65.5","29.64","204","3.8","8.4","0.00","0.00"
"21:54:59","77.9","65.9","66.7","29.64","198","2.7","8.4","0.00","0.00"
"21:59:57","77.6","66","67.6","29.65","215","3","8.1","0.00","0.00"
"22:04:57","77.3","66","68.2","29.65","213","3.6","8.4","0.00","0.00"
"22:09:57","77.1","66.1","69","29.65","226","2.8","6","0.00","0.00"
"22:14:59","77","66.1","69.2","29.65","198","2.2","6","0.00","0.00"
"22:19:56","76.8","66.3","70","29.65","199","1.9","4.8","0.00","0.00"
"22:24:57","76.7","66.4","70.5","29.65","194","2.8","8.4","0.00","0.00"
"22:29:59","76.6","66.5","71.1","29.65","186","2.4","8.1","0.00","0.00"
"22:34:56","76.4","66.7","72","29.65","184","2.3","4.8","0.00","0.00"
"22:39:59","76.3","66.6","72","29.65","167","1.8","6","0.00","0.00"
"22:44:56","76.2","66.5","72","29.65","218","2.9","7.2","0.00","0.00"
"22:49:57","75.9","66.1","71.7","29.65","199","4.8","10.8","0.00","0.00"
"22:54:59","75.7","66.1","72.2","29.65","192","3.4","8.4","0.00","0.00"
"22:59:56","75.1","66.7","75.3","29.65","206","4.2","8.4","0.03","0.02"
"23:04:56","73.9","66.9","79","29.64","208","1.9","8.4","0.03","0.03"
"23:09:59","72.8","67","82","29.64","208","0.4","4.8","0.03","0.03"
"23:14:57","72","67.1","84.6","29.64","208","0.4","1.2","0.03","0.03"
"23:19:58","71.4","66.9","85.7","29.64","208","0.4","2.4","0.03","0.03"
"23:24:56","71","66.6","86","29.64","209","1.4","3.6","0.03","0.03"
"23:29:57","70.7","66.5","86.5","29.65","209","0.9","2.4","0.03","0.03"
"23:34:57","70.6","66.3","86.2","29.65","209","0.1","2.4","0.03","0.03"
"23:39:56","70.6","66.4","86.8","29.65","210","0","0","0.03","0.03"
"23:44:57","70.5","66.4","86.9","29.66","209","0.2","2.4","0.03","0.03"
"23:49:59","70.4","66.6","87.6","29.66","209","0.1","1.2","0.03","0.03"
